Weather in Lyubashevka

Ukraine / Odesa District     47˚50′08″N   30˚15′50″E
temp.,
°C
wind,
m/s
gust,
m/s
humid.,
%
clouds,
%
prec.,
mm/h
press.,
hPa
HPBL,
m
3 december, thu
thu323:00e359598 0.0 1026211
02:00−1˚ene349598 0.0 1026100
05:00ene469789 0.0 1025211
08:00+1˚ene589895 0.0 1025195
11:00+2˚e4710081 0.0 1024267
14:00+2˚e3810089 0.1 1023253
17:00+3˚e41010099 0.0 1022226
20:00+4˚ese5119999 0.0 1022300
4 december, fri
fri423:00+5˚se5109999 0.1 1022295
02:00+4˚sse349998 0.2 1022129
05:00+3˚se469473 0.0 1022129
08:00+4˚ese599870 0.0 1022284
11:00+6˚ese6108896 0.0 1022402
14:00+6˚ese7108892 0.0 1022448
17:00+4˚se699399 0.0 1022534
20:00+5˚se61090100 0.0 1023633
5 december, sat
sat523:00+4˚ese61089100 0.0 1023528
02:00+4˚se6993100 0.0 1024524
05:00+3˚ese6994100 0.0 1024522
08:00+3˚ese6994100 0.0 1025524
11:00+3˚ese6989100 0.0 1025500
14:00+3˚ese6883100 0.0 1026532
17:00+2˚e498373 0.0 1026399
20:00ese5118740 0.0 1027449
6 december, sun
sun623:00+2˚ese588183 0.0 1027626
02:00+2˚ese587891 0.0 1027642
05:00ese5874100 0.0 1027552
08:00−1˚e6973100 0.0 1028495
11:00ese6971100 0.0 1028521
14:00+1˚ese6968100 0.0 1027688
17:00ese4107356 0.0 1027479
20:00−1˚ese5117544 0.0 1027444
7 december, mon
mon723:00−1˚ese613700 0.0 1027581
02:00−2˚ese612600 0.0 1027505
05:00−3˚ese612620 0.0 1027490
08:00−4˚ese713660 0.0 1027502
11:00−1˚ese711610 0.0 1026600
14:00+1˚ese711610 0.0 1025650
17:00−2˚ese5127429 0.0 1025532
20:00−1˚ese6117845 0.0 1025721